Theta_e
316 316 316 316 316 315 315 315 315 315 315 315 315 315 315 315 315 315 315 315 314 314 314 313 313 313 313 313 313 312 312 312 312 312 311 311 311 311 310 309 308 306
316 316 316 316 315 315 315 315 315 315 315 315 315 315 315 315 315 315 315 315 314 314 314 313 313 313 313 313 313 313 312 312 311 311 311 311 311 311 310 309 308 306
316 316 315 315 315 315 315 315 315 315 315 315 315 315 315 315 315 315 315 315 315 314 313 313 313 313 313 313 312 312 312 311 311 311 311 310 310 310 309 308 307 306
316 316 315 315 315 315 315 315 315 315 315 315 315 315 315 315 315 315 315 315 314 314 313 313 313 313 313 312 312 312 311 311 311 311 310 310 310 309 309 308 308 307
316 315 315 315 315 315 315 315 315 315 315 315 315 315 315 315 315 315 315 315 314 314 314 313 313 313 313 312 312 311 311 311 311 310 310 310 309 309 309 308 308 307
315 315 315 315 315 315 315 315 315 315 315 315 315 315 315 315 315 315 315 314 314 314 314 314 313 313 312 312 312 311 311 310 310 310 309 309 309 308 308 308 308 307
315 315 315 315 315 315 315 315 315 315 315 315 315 315 315 315 315 315 314 314 314 314 313 313 313 312 312 311 311 310 310 309 309 309 308 308 308 307 307 307 307 307
315 315 315 315 315 315 315 315 315 315 314 315 315 315 315 315 314 314 314 313 313 313 312 312 311 311 311 310 310 310 309 309 309 308 308 308 307 307 306 306 306 306
315 315 315 315 315 315 315 314 314 314 314 314 315 314 314 314 314 313 313 312 312 312 311 311 311 310 310 310 309 309 309 309 308 308 307 306 304 304 303 302 302 302
315 315 315 315 315 315 314 314 314 314 314 314 314 314 314 313 312 312 312 311 311 311 311 311 310 310 309 309 309 308 308 307 305 303 302 300 299 298 298 297 297 296
315 315 315 315 314 314 314 314 314 314 314 314 314 313 312 312 311 311 311 311 311 311 310 310 309 309 308 308 307 305 303 301 299 298 297 296 295 295 295 295 295 294
315 315 315 314 314 314 314 314 314 314 314 313 313 312 311 311 311 311 311 311 310 309 309 309 308 307 305 303 301 299 298 297 296 295 295 295 295 295 294 294 294 294
315 315 314 314 314 314 314 314 314 314 313 313 312 312 311 311 311 311 310 309 309 308 307 306 304 302 300 298 297 296 296 295 295 295 295 294 294 294 294 294 294 294
315 315 314 314 314 314 314 314 314 313 313 312 312 311 311 311 310 309 308 308 307 306 304 301 299 298 297 296 296 295 295 295 295 295 295 294 294 294 294 294 294 294
314 314 314 314 314 314 314 314 313 313 312 312 311 311 310 309 308 307 307 305 303 301 299 297 296 296 296 295 295 295 295 295 294 294 294 294 294 294 294 294 293 293
314 314 314 314 314 314 314 313 313 312 312 311 311 310 309 308 307 306 304 301 299 297 296 296 295 295 295 295 295 295 294 294 294 294 294 294 294 294 294 293 293 293
314 314 314 314 314 313 313 313 312 312 311 311 310 308 307 306 305 302 300 297 296 296 295 295 295 295 295 295 294 294 294 294 294 294 294 294 294 294 293 293 293 293
314 314 314 314 313 313 312 312 312 311 310 309 308 307 305 304 301 299 297 296 295 295 295 294 294 294 294 294 294 294 294 294 294 294 294 293 293 293 293 293 293 292
314 314 313 313 313 312 312 312 312 311 309 308 306 305 302 300 298 296 295 295 294 294 294 294 294 294 294 294 294 294 294 294 294 293 293 293 293 293 293 292 292 292
314 313 313 313 312 312 312 311 311 309 308 306 304 302 299 297 296 295 295 294 294 294 294 294 294 294 294 294 294 293 293 293 293 293 293 293 293 292 292 292 292 292
313 313 312 312 311 311 311 311 309 308 306 304 301 298 296 295 295 294 294 294 294 294 294 293 293 293 293 293 293 293 293 293 293 293 292 292 292 292 292 292 291 291
312 312 312 311 311 311 310 309 308 306 304 301 298 296 295 294 294 294 294 294 293 293 293 293 293 293 293 293 293 293 293 293 293 292 292 292 292 292 292 291 291 291
311 311 311 310 310 310 309 307 306 303 301 298 296 294 294 294 293 293 293 293 293 293 293 293 293 293 293 293 293 293 293 293 292 292 292 292 292 291 291 291 291 290
311 310 310 310 309 308 307 305 303 301 298 296 294 293 293 293 293 293 293 293 293 293 293 293 293 293 293 293 293 293 293 293 292 292 292 292 292 291 291 291 290 290
310 309 309 309 308 307 305 303 301 298 296 294 293 293 293 293 293 293 293 293 293 293 293 292 293 293 293 293 293 292 292 292 292 292 292 292 291 291 291 290 290 290
309 308 308 307 306 304 302 300 298 296 294 293 293 292 292 293 292 292 292 292 292 292 292 292 293 292 292 292 292 292 292 292 292 292 291 291 291 291 290 290 289 289
Wind_Speed
19 17 15 13 12 10 7 5 4 4 6 8 10 11 13 15 16 17 18 19 19 20 20 21 22 22 22 22 23 24 25 25 25 25 25 24 23 22 22 23 24 25
19 18 16 14 12 8 6 5 5 6 8 9 11 12 14 16 17 18 20 21 21 20 20 20 20 21 22 22 22 23 23 24 24 24 24 23 22 22 23 24 24 22
20 19 17 14 10 8 7 6 7 9 10 11 12 13 15 17 18 21 22 23 21 20 19 18 19 19 20 21 21 21 21 22 22 22 22 22 22 23 23 23 23 20
21 19 16 13 11 9 8 9 10 12 11 12 13 15 17 19 21 23 24 23 21 19 18 18 18 18 18 19 19 19 20 20 20 20 19 20 20 20 20 20 20 19
21 18 15 13 12 10 10 11 12 12 12 13 14 16 18 20 23 25 24 23 20 18 18 17 17 17 17 17 17 17 17 18 18 17 17 17 17 18 18 18 18 19
19 17 15 13 12 12 13 13 13 13 13 14 15 17 20 23 25 26 24 21 19 18 18 17 16 16 15 15 15 14 14 14 14 14 14 15 15 16 17 17 18 18
18 16 15 14 13 14 15 14 14 14 14 15 17 18 22 24 25 24 21 19 18 17 16 16 15 14 14 14 13 12 11 11 11 11 12 12 13 14 14 15 16 17
17 16 15 15 15 16 16 15 14 14 15 16 18 20 23 24 23 20 18 16 15 15 15 15 15 14 13 13 12 11 11 11 11 11 11 11 11 12 13 13 15 16
17 16 16 16 17 17 16 15 15 15 16 18 20 21 22 21 19 17 15 15 14 14 15 15 14 14 13 12 12 11 10 10 10 10 10 11 12 12 13 13 14 15
18 17 18 18 18 17 16 16 16 16 18 19 20 20 19 18 16 15 14 14 15 15 15 15 14 13 12 11 10 9 8 8 8 9 10 11 12 13 14 15 16 17
19 19 19 19 18 17 17 17 17 18 18 19 18 18 17 15 15 14 15 15 15 15 15 14 13 11 9 7 6 6 7 7 8 9 10 11 13 14 15 16 17 19
20 20 20 19 18 18 18 18 18 18 18 17 17 17 16 16 15 15 15 15 14 14 12 11 9 7 5 5 5 5 6 8 9 10 11 13 14 15 17 18 19 19
21 21 20 20 19 19 19 19 18 17 17 17 17 17 17 16 16 15 14 13 12 10 9 7 6 5 4 4 5 6 7 8 10 11 13 14 15 17 18 19 20 20
21 21 21 21 20 20 19 18 17 17 17 18 18 18 17 16 15 14 12 10 9 7 6 5 5 4 4 4 5 7 8 10 11 13 14 16 17 18 19 20 21 22
22 22 22 22 21 20 19 18 17 17 18 19 19 18 16 15 13 11 10 9 7 6 6 5 4 4 3 4 5 7 9 11 13 14 15 17 18 19 20 21 22 23
22 23 23 22 22 21 19 18 17 18 19 19 18 16 15 13 11 10 9 8 7 6 5 4 4 3 4 5 6 8 10 12 13 15 16 18 19 19 20 21 23 24
24 24 24 23 22 21 19 18 18 20 20 18 17 15 14 13 11 10 9 7 6 5 4 4 4 4 4 6 7 9 11 12 14 16 17 18 20 21 22 23 24 25
25 25 24 23 22 21 19 19 20 20 19 17 16 15 14 13 12 10 9 7 7 6 4 4 4 5 6 7 9 10 12 13 15 16 17 19 20 22 23 24 25 25
25 25 24 24 23 21 20 21 20 20 18 16 16 15 14 13 12 11 10 9 8 6 4 4 4 5 7 8 10 11 13 14 15 17 18 19 20 22 23 24 25 27
26 25 25 24 23 22 22 21 20 19 18 17 17 16 15 14 12 12 11 9 8 6 5 4 4 6 7 8 10 12 13 15 16 17 19 20 21 22 24 25 26 27
26 26 26 24 23 23 22 21 20 19 18 17 16 15 15 14 13 12 11 10 8 7 6 5 5 6 8 10 11 12 14 16 18 19 21 22 23 24 25 26 27 28
27 27 26 24 23 22 21 20 19 18 18 17 16 16 15 15 14 13 11 9 8 7 6 6 7 8 9 11 12 14 16 17 19 21 22 23 24 25 26 26 27 29
28 26 25 23 22 22 21 20 19 18 18 17 17 16 16 15 14 13 11 9 8 7 7 7 8 9 10 12 13 15 17 19 20 22 23 25 25 26 27 27 28 29
27 25 24 22 22 21 20 19 19 19 18 17 17 17 16 15 14 13 11 10 9 8 7 7 8 9 11 14 16 17 19 20 22 24 25 26 27 27 28 28 29 30
26 24 23 22 21 20 20 19 19 19 18 18 18 17 16 15 14 13 11 10 9 8 6 7 9 11 14 15 16 18 19 21 23 25 27 28 29 29 29 29 29 30
24 23 22 21 21 20 20 19 19 18 18 18 18 17 16 15 13 12 11 10 8 7 7 9 11 13 13 15 16 18 20 22 24 26 28 30 30 31 31 31 30 30
Wind_Direction
210 207 202 197 199 203 206 221 243 272 290 296 302 304 307 309 311 314 315 315 314 311 308 307 307 307 306 307 307 307 306 307 307 306 303 300 298 299 300 300 299 297
200 196 195 196 197 199 210 235 260 279 284 287 294 301 305 309 311 314 314 313 313 309 306 304 304 304 305 307 307 307 307 307 307 306 304 306 308 311 312 310 309 305
191 191 194 195 196 205 222 243 260 268 273 283 295 301 305 308 311 312 310 309 309 307 305 303 303 303 303 305 305 305 306 306 305 305 306 310 311 312 313 312 311 307
189 192 194 196 203 215 231 248 257 265 275 288 296 300 304 307 308 307 305 305 304 303 303 303 303 303 301 302 302 304 305 303 303 305 307 309 310 311 312 312 312 311
191 193 195 202 211 221 236 249 258 269 280 287 292 297 301 301 300 299 299 299 300 300 300 300 298 298 298 299 300 300 300 299 302 306 308 311 312 312 314 316 317 318
192 195 199 208 216 226 239 249 259 271 278 285 292 294 294 293 292 293 294 295 296 296 296 295 294 295 296 297 297 297 297 299 304 308 310 314 315 314 316 319 321 324
194 199 205 213 222 231 242 252 261 270 278 285 290 290 288 288 289 289 291 292 293 293 292 292 291 292 292 293 295 297 301 304 307 311 315 319 322 324 325 323 323 326
198 205 211 218 227 235 244 254 262 272 279 283 285 285 286 287 287 287 288 289 288 287 287 287 287 289 291 294 297 300 305 309 314 321 328 334 338 338 337 332 330 332
203 210 217 223 231 239 247 256 264 272 277 280 282 284 285 284 283 282 282 282 281 280 282 283 286 290 292 295 299 303 310 317 324 333 340 345 348 347 345 342 340 341
209 216 221 227 234 242 251 258 264 271 274 278 281 282 282 279 276 275 274 274 275 276 280 283 285 288 291 296 302 309 319 329 337 344 348 350 351 350 349 349 348 348
214 220 225 231 237 244 253 259 264 269 273 276 279 278 275 269 266 267 268 270 273 275 278 280 281 285 289 297 309 320 332 341 346 351 355 357 358 357 357 356 355 354
219 224 229 234 241 247 254 259 262 268 272 275 276 271 265 260 259 262 265 267 270 271 272 273 274 282 290 304 322 333 342 350 355 0 3 4 4 2 0 359 357 355
223 229 233 237 243 248 253 258 263 268 271 273 270 263 257 256 258 260 261 263 263 261 261 264 268 282 297 317 335 346 355 359 3 6 5 4 2 360 358 356 355 353
228 233 236 239 244 249 254 260 263 266 268 267 262 256 254 256 256 256 254 251 249 247 249 260 272 287 309 332 348 357 1 2 3 1 359 357 356 355 354 352 351 350
231 235 239 242 246 250 255 258 259 262 263 260 255 252 251 251 248 244 239 235 235 240 248 259 274 290 317 342 354 360 359 358 357 354 352 351 350 350 349 348 347 346
234 237 241 244 247 250 252 253 255 259 258 253 249 247 244 240 234 228 225 225 228 235 243 253 269 289 318 341 351 355 353 350 350 348 346 345 344 345 345 344 343 342
235 239 242 244 246 248 247 249 254 255 251 245 241 239 233 226 221 218 217 217 217 221 232 246 269 294 320 339 345 347 346 344 344 344 343 342 341 341 341 341 340 339
236 239 241 244 245 245 244 249 253 249 243 238 234 228 222 216 213 211 208 204 203 207 220 243 277 306 325 336 340 341 341 340 340 340 340 339 338 338 338 338 337 336
236 238 241 244 244 243 244 247 247 241 235 231 224 218 213 210 206 202 199 197 198 203 217 248 287 313 325 332 334 336 337 338 338 338 337 336 335 335 336 335 334 333
236 238 241 242 240 240 242 243 240 233 228 223 216 212 208 205 201 197 196 197 200 206 221 248 282 305 317 324 328 331 334 335 335 335 334 334 334 334 334 334 333 332
238 239 239 238 237 238 239 238 233 227 222 216 211 208 204 201 199 197 196 198 204 216 232 255 283 301 312 320 326 330 333 333 334 333 333 333 333 333 333 333 332 332
239 238 237 235 235 236 235 232 227 221 215 211 208 205 202 200 199 197 197 201 209 227 247 268 288 301 311 319 325 329 331 332 332 332 331 331 331 330 331 331 331 332
238 236 235 233 234 234 231 226 221 215 211 209 206 203 201 200 199 198 201 206 216 235 255 272 288 301 312 320 326 329 331 331 330 328 327 327 327 328 329 330 331 331
236 234 234 233 233 230 225 220 215 211 210 207 204 203 202 202 203 204 207 213 221 235 252 273 294 308 317 322 326 327 328 327 326 324 324 323 324 326 327 329 330 330
233 232 232 231 229 224 219 215 213 210 209 206 204 204 205 206 207 209 214 220 228 238 258 285 301 309 314 317 320 321 322 323 322 322 321 321 322 324 326 328 329 330
230 229 229 226 223 219 215 212 211 210 208 206 205 206 208 210 212 215 221 228 237 252 273 291 300 305 308 311 315 318 320 321 321 320 320 320 321 323 325 327 328 330